CW5306 Weather Reports


time (UTC)temp
C
wind
direction
speed
KPH
gust
KPH
rain 1hr
cm
rain 24hr
cm
rain mn
cm
humidity
%
barometer
mb
20240613035741 25 84 14.5 27.4 0.00 0.38 0.38 81 1017.1
20240613035514 25 75 17.7 27.4 0.00 0.38 0.38 81 1017.1
20240613034742 25 94 12.9 25.7 0.00 0.38 0.38 80 1016.9
20240613034514 25 92 17.7 25.7 0.00 0.38 0.38 81 1017.1
20240613033741 25 48 8.0 24.1 0.00 0.38 0.38 80 1017.0
20240613033242 25 82 11.3 24.1 0.00 0.38 0.38 80 1017.1
20240613032742 26 75 8.0 22.5 0.00 0.41 0.38 79 1017.3
20240613032242 26 70 9.7 22.5 0.00 0.41 0.38 79 1017.2
20240613031742 26 105 9.7 22.5 0.00 0.41 0.38 79 1017.2
20240613031242 26 74 12.9 22.5 0.00 0.41 0.38 79 1017.2
20240613030742 26 88 12.9 22.5 0.00 0.41 0.38 79 1017.0
20240613030243 26 79 16.1 29.0 0.00 0.41 0.38 78 1017.0
20240613025742 26 63 9.7 29.0 0.00 0.41 0.38 77 1016.9
20240613025243 26 95 11.3 24.1 0.00 0.41 0.38 77 1017.2
20240613024742 26 58 6.4 22.5 0.00 0.41 0.38 78 1016.9
20240613024242 26 91 9.7 22.5 0.00 0.41 0.38 80 1016.9
20240613023742 26 34 8.0 20.9 0.00 0.41 0.38 82 1017.3
20240613023500 26 98 12.9 24.1 0.00 0.46 0.38 81 1017.1
20240613022729 26 67 9.7 24.1 0.00 0.46 0.38 80 1017.3
20240613022230 26 30 12.9 22.5 0.00 0.46 0.38 79 1017.1
20240613021729 26 77 14.5 22.5 0.00 0.46 0.38 80 1017.2
20240613021230 26 86 11.3 24.1 0.00 0.46 0.38 80 1016.9
20240613020732 26 82 14.5 24.1 0.00 0.46 0.38 79 1017.1
20240613020230 26 87 9.7 20.9 0.00 0.46 0.38 79 1017.2
20240613015730 26 92 8.0 16.1 0.00 0.46 0.38 79 1017.4
20240613015230 26 84 11.3 22.5 0.00 0.46 0.38 78 1017.3
20240613014730 26 77 9.7 22.5 0.00 0.46 0.38 79 1017.2
20240613014230 26 119 6.4 17.7 0.00 0.46 0.38 79 1017.0
20240613013730 26 70 8.0 22.5 0.00 0.46 0.38 78 1017.2
20240613013218 26 115 9.7 22.5 0.00 0.46 0.38 77 1017.1
20240613012948 26 63 9.7 24.1 0.00 0.46 0.38 78 1017.1
20240613012218 26 85 9.7 24.1 0.00 0.46 0.38 78 1017.4
20240613011718 26 110 11.3 22.5 0.00 0.46 0.38 79 1017.3
20240613011218 26 72 14.5 22.5 0.00 0.46 0.38 79 1017.2
20240613010720 26 49 16.1 22.5 0.00 0.46 0.38 79 1017.4
20240613010218 26 87 11.3 20.9 0.00 0.46 0.38 78 1017.4
20240613005938 26 56 9.7 20.9 0.00 0.46 0.38 78 1017.6
20240613005205 26 64 12.9 24.1 0.00 0.46 0.38 80 1017.5
20240613004656 26 58 12.9 24.1 0.00 0.46 0.38 80 1017.5
20240613004154 26 72 4.8 22.5 0.00 0.46 0.38 80 1017.6
20240613003925 26 71 11.3 20.9 0.00 0.46 0.38 80 1017.7
20240613003801 26 63 8.0 20.9 0.00 0.46 0.38 80 1017.6
20240613002925 26 70 9.7 20.9 0.00 0.46 0.38 80 1017.5
20240613002154 26 115 9.7 20.9 0.00 0.46 0.38 79 1017.7
20240613001655 26 89 9.7 17.7 0.00 0.46 0.38 81 1017.8
20240613001424 26 86 9.7 17.7 0.00 0.46 0.38 80 1017.8
20240613000653 26 86 6.4 24.1 0.03 0.46 0.38 80 1017.9
20240613000154 26 77 9.7 24.1 0.05 0.46 0.38 79 1018.2
20240612235654 26 80 12.9 22.5 0.05 0.46 0.38 79 1018.1
20240612235154 26 78 8.0 25.7 0.05 0.46 0.38 80 1018.3
20240612234654 26 85 16.1 24.1 0.05 0.46 0.38 79 1018.2
20240612234155 26 86 9.7 20.9 0.05 0.46 0.38 79 1018.5
20240612233654 26 110 11.3 24.1 0.05 0.46 0.38 80 1018.2
20240612233154 25 91 11.3 24.1 0.05 0.46 0.38 84 1018.3
20240612232655 25 109 12.9 16.1 0.05 0.46 0.38 85 1018.6
20240612232153 24 81 6.4 14.5 0.05 0.46 0.38 87 1018.3
20240612231654 24 88 4.8 25.7 0.08 0.46 0.38 88 1018.3
20240612231153 24 74 4.8 33.8 0.08 0.46 0.38 85 1018.5
20240612230654 26 53 19.3 33.8 0.05 0.43 0.36 80 1018.5
20240612230153 26 82 14.5 20.9 0.03 0.41 0.33 77 1018.5
20240612225654 26 50 8.0 24.1 0.03 0.41 0.33 78 1018.5
20240612225155 26 79 12.9 24.1 0.03 0.41 0.33 80 1018.6
20240612224654 26 106 9.7 22.5 0.03 0.41 0.33 80 1018.5
20240612224154 26 83 12.9 22.5 0.03 0.41 0.33 81 1018.7
20240612223654 25 92 8.0 22.5 0.03 0.41 0.33 84 1018.8
20240612223154 25 77 8.0 14.5 0.03 0.41 0.33 87 1018.6
20240612222654 25 65 6.4 29.0 0.03 0.41 0.33 85 1018.7
20240612222154 25 121 6.4 29.0 0.03 0.41 0.33 83 1018.8
20240612221653 26 92 14.5 24.1 0.00 0.38 0.30 80 1018.9
20240612221154 26 70 6.4 22.5 0.00 0.38 0.30 81 1018.6
20240612220924 26 74 9.7 25.7 0.00 0.38 0.30 78 1018.8
20240612220154 26 54 11.3 25.7 0.00 0.38 0.30 78 1018.7
20240612215912 26 107 9.7 24.1 0.00 0.38 0.30 79 1018.9
20240612215141 27 70 11.3 24.1 0.00 0.38 0.30 79 1018.9
20240612214642 26 93 14.5 24.1 0.00 0.38 0.30 78 1019.1
20240612214143 26 108 14.5 25.7 0.00 0.38 0.30 80 1019.0
20240612213642 26 50 14.5 25.7 0.00 0.38 0.30 80 1019.1
20240612213418 26 75 16.1 25.7 0.00 0.38 0.30 79 1019.1
20240612212643 26 61 14.5 25.7 0.00 0.38 0.30 79 1019.1
20240612212142 26 80 8.0 24.1 0.00 0.38 0.30 79 1019.2
20240612211913 26 77 12.9 24.1 0.00 0.38 0.30 79 1019.1
20240612211143 26 99 11.3 24.1 0.00 0.38 0.30 80 1019.1
20240612210642 26 62 16.1 24.1 0.00 0.38 0.30 78 1019.0
20240612210413 26 89 14.5 22.5 0.00 0.38 0.30 79 1019.1
20240612205642 26 87 17.7 24.1 0.00 0.38 0.30 79 1019.2
20240612205143 26 90 9.7 25.7 0.00 0.38 0.30 80 1019.0
20240612204642 26 51 19.3 25.7 0.00 0.38 0.30 80 1019.3
20240612204143 25 71 8.0 22.5 0.00 0.38 0.30 83 1019.2
20240612203649 26 30 17.7 22.5 0.00 0.38 0.30 81 1019.2
20240612203643 25 64 14.5 22.5 0.00 0.38 0.30 83 1019.3
20240612202643 26 92 12.9 25.7 0.00 0.38 0.30 82 1019.5
20240612202130 25 96 6.4 25.7 0.00 0.38 0.30 83 1018.9
20240612201630 26 80 9.7 25.7 0.00 0.38 0.30 83 1019.5
20240612201130 26 46 9.7 25.7 0.00 0.38 0.30 81 1019.2
20240612200630 26 120 8.0 25.7 0.00 0.38 0.30 79 1019.3
20240612200129 26 91 14.5 27.4 0.00 0.38 0.30 80 1019.5
20240612195630 26 87 11.3 27.4 0.00 0.38 0.30 80 1019.7
20240612195129 26 103 8.0 22.5 0.00 0.38 0.30 82 1019.3
20240612194617 26 84 9.7 24.1 0.00 0.38 0.30 81 1019.4
20240612194118 26 78 11.3 25.7 0.00 0.38 0.30 82 1019.4
20240612193618 26 63 6.4 27.4 0.00 0.38 0.30 82 1019.3
20240612193118 26 73 6.4 27.4 0.00 0.38 0.30 83 1019.5
20240612192618 26 114 8.0 24.1 0.00 0.38 0.30 82 1019.1
20240612192118 26 115 9.7 22.5 0.00 0.38 0.30 82 1019.4
20240612191618 25 73 6.4 24.1 0.00 0.38 0.30 83 1019.4
20240612191338 25 50 12.9 24.1 0.00 0.38 0.30 84 1019.4
20240612190606 25 86 12.9 24.1 0.00 0.38 0.30 86 1019.4
20240612190106 25 83 16.1 24.1 0.03 0.38 0.30 86 1019.4
20240612185606 24 63 16.1 22.5 0.05 0.38 0.30 86 1019.6
20240612185106 24 127 9.7 20.9 0.05 0.38 0.30 86 1019.6
20240612184607 24 82 9.7 27.4 0.05 0.38 0.30 86 1019.6
20240612184106 24 112 9.7 27.4 0.05 0.38 0.30 86 1019.5
20240612183554 25 94 6.4 17.7 0.05 0.38 0.30 85 1019.5
20240612183055 25 132 9.7 16.1 0.05 0.38 0.30 85 1019.5
20240612182554 25 115 4.8 22.5 0.05 0.38 0.30 86 1019.4
20240612182325 25 83 8.0 22.5 0.05 0.38 0.30 86 1019.4
20240612181554 25 113 11.3 22.5 0.05 0.38 0.30 88 1019.5
20240612181054 24 104 8.0 16.1 0.05 0.38 0.30 88 1019.4
20240612180554 24 109 8.0 20.9 0.05 0.38 0.30 87 1019.4
20240612180054 25 83 8.0 22.5 0.00 0.36 0.28 84 1019.3
20240612175554 25 76 8.0 22.5 0.00 0.33 0.28 83 1019.4
20240612175054 25 82 12.9 20.9 0.00 0.33 0.28 83 1019.3
20240612174554 25 101 11.3 20.9 0.00 0.33 0.28 83 1019.2
20240612174054 25 127 9.7 20.9 0.00 0.33 0.28 84 1019.3
20240612173825 25 72 9.7 20.9 0.00 0.33 0.28 84 1019.2
20240612173054 25 92 9.7 20.9 0.00 0.33 0.28 84 1019.0
20240612172555 25 80 11.3 20.9 0.00 0.33 0.28 84 1019.0
20240612172326 25 95 14.5 27.4 0.00 0.33 0.28 86 1019.0
20240612171553 25 99 9.7 27.4 0.00 0.33 0.28 86 1018.8
20240612171054 24 54 11.3 24.1 0.00 0.33 0.28 86 1018.8
20240612170542 24 87 9.7 20.9 0.00 0.33 0.28 86 1018.9
20240612170043 24 66 6.4 20.9 0.00 0.33 0.28 86 1018.8
20240612165542 24 100 11.3 24.1 0.00 0.33 0.28 86 1018.7
20240612165313 24 106 6.4 24.1 0.00 0.33 0.28 87 1018.7
20240612164543 24 85 4.8 20.9 0.00 0.33 0.28 88 1018.5
20240612164042 23 71 6.4 20.9 0.00 0.33 0.28 88 1018.7
20240612163543 23 125 8.0 20.9 0.00 0.33 0.28 88 1018.5
20240612163042 23 108 9.7 16.1 0.00 0.33 0.28 88 1018.8
20240612162543 23 109 9.7 17.7 0.00 0.33 0.28 88 1018.7
20240612162043 23 109 6.4 17.7 0.00 0.33 0.28 88 1018.2
20240612161541 23 95 8.0 22.5 0.00 0.33 0.28 88 1018.4
20240612161042 23 85 12.9 22.5 0.00 0.33 0.28 89 1018.5
20240612160542 23 99 9.7 20.9 0.00 0.33 0.28 88 1018.1
20240612160042 23 90 4.8 22.5 0.00 0.33 0.28 88 1018.4
20240612155542 23 99 9.7 24.1 0.00 0.33 0.28 89 1018.2
20240612155314 23 71 8.0 24.1 0.00 0.33 0.28 89 1018.1
20240612154543 23 105 9.7 20.9 0.00 0.33 0.28 89 1018.2
20240612154030 23 120 4.8 20.9 0.00 0.33 0.28 90 1018.0
20240612153801 23 90 12.9 17.7 0.00 0.33 0.28 90 1018.1
20240612153018 23 102 3.2 22.5 0.00 0.33 0.28 91 1018.0
20240612152749 23 110 6.4 22.5 0.00 0.33 0.28 91 1017.9
20240612152018 23 86 3.2 17.7 0.00 0.33 0.28 91 1018.2
20240612151518 22 100 4.8 17.7 0.00 0.33 0.28 92 1018.0
20240612151018 22 99 3.2 16.1 0.00 0.33 0.28 91 1017.9
20240612150518 22 93 8.0 24.1 0.00 0.33 0.28 91 1017.8
20240612150018 23 104 12.9 24.1 0.00 0.33 0.28 91 1017.8
20240612145506 23 98 12.9 24.1 0.00 0.33 0.28 91 1017.6
20240612144953 23 138 9.7 24.1 0.00 0.33 0.28 91 1017.6
20240612144455 23 86 11.3 17.7 0.00 0.33 0.25 92 1017.6
20240612143954 23 119 8.0 17.7 0.00 0.33 0.25 92 1017.6
20240612143454 23 111 6.4 17.7 0.00 0.33 0.25 92 1017.6
20240612143227 23 89 8.0 17.7 0.00 0.33 0.25 92 1017.6
20240612142454 22 84 4.8 17.7 0.00 0.33 0.25 92 1017.7
20240612141954 22 115 4.8 17.7 0.00 0.33 0.25 93 1017.9
20240612141442 22 83 8.0 22.5 0.00 0.33 0.25 93 1017.6
20240612140942 22 128 8.0 22.5 0.00 0.33 0.25 93 1017.7
20240612140442 22 99 9.7 20.9 0.00 0.33 0.25 92 1017.7
20240612135942 22 80 11.3 25.7 0.00 0.33 0.25 92 1018.0
20240612135443 22 99 12.9 24.1 0.00 0.33 0.25 92 1017.7
20240612134942 22 107 6.4 17.7 0.05 0.33 0.25 93 1017.8
20240612134442 22 106 11.3 16.1 0.05 0.33 0.25 94 1017.8
20240612133941 22 122 6.4 22.5 0.05 0.33 0.25 94 1018.0
20240612133441 22 123 9.7 22.5 0.08 0.33 0.25 94 1018.1
20240612132942 22 131 6.4 24.1 0.08 0.33 0.25 94 1018.1
20240612132443 22 127 4.8 24.1 0.08 0.33 0.25 93 1018.1
20240612131943 22 175 6.4 20.9 0.08 0.33 0.25 94 1017.9
20240612131442 22 122 6.4 20.9 0.08 0.33 0.25 94 1018.1
20240612130942 22 127 6.4 17.7 0.15 0.33 0.25 93 1017.9
20240612130713 22 127 9.7 17.7 0.15 0.33 0.25 93 1017.9
20240612125942 22 132 9.7 20.9 0.15 0.33 0.25 93 1018.0
20240612125443 22 123 12.9 24.1 0.18 0.33 0.25 93 1018.0
20240612124942 22 113 16.1 24.1 0.13 0.28 0.23 93 1018.0
20240612124442 22 116 11.3 24.1 0.10 0.28 0.20 93 1018.0
20240612123943 23 122 9.7 24.1 0.10 0.28 0.20 93 1018.1
20240612123442 22 98 14.5 22.5 0.10 0.25 0.18 93 1018.2
20240612122942 22 52 8.0 22.5 0.10 0.25 0.18 92 1018.2
20240612122442 22 98 6.4 16.1 0.10 0.25 0.18 92 1017.9
20240612121942 22 101 4.8 29.0 0.10 0.25 0.18 91 1018.0
20240612121441 22 113 6.4 29.0 0.10 0.25 0.18 91 1018.3
20240612120943 23 143 20.9 27.4 0.00 0.18 0.10 91 1018.3
20240612120442 23 93 12.9 16.1 0.00 0.18 0.10 91 1018.2
20240612115942 23 96 9.7 17.7 0.00 0.18 0.10 91 1018.6
20240612115442 23 86 6.4 17.7 0.00 0.15 0.10 90 1018.7
20240612114943 23 122 6.4 22.5 0.00 0.15 0.10 90 1018.4
20240612114442 23 122 6.4 22.5 0.00 0.15 0.10 89 1018.3
20240612114213 23 92 9.7 25.7 0.00 0.15 0.10 89 1018.3
20240612113442 23 130 12.9 25.7 0.00 0.15 0.10 89 1018.7
20240612113214 23 110 9.7 27.4 0.10 0.15 0.10 89 1018.5
20240612112441 23 115 9.7 27.4 0.10 0.15 0.10 90 1018.7
20240612112213 23 95 16.1 27.4 0.10 0.15 0.10 90 1018.8
20240612111712 23 98 12.9 24.1 0.10 0.15 0.10 91 1018.9
20240612110942 22 89 16.1 20.9 0.10 0.15 0.10 91 1019.1
20240612110713 23 92 17.7 17.7 0.10 0.15 0.10 92 1018.9
20240612105942 22 104 1.6 11.3 0.10 0.18 0.10 92 1019.1
20240612105442 22 131 3.2 12.9 0.10 0.18 0.10 91 1019.0
20240612105213 22 138 4.8 16.1 0.10 0.23 0.10 91 1019.2
20240612104442 23 159 8.0 20.9 0.10 0.25 0.10 91 1019.1
20240612103942 23 121 6.4 24.1 0.10 0.25 0.10 90 1018.9
20240612103442 23 152 8.0 24.1 0.08 0.23 0.08 90 1019.2
20240612103212 23 107 14.5 20.9 0.00 0.15 0.00 89 1019.1
20240612102442 23 82 8.0 17.7 0.00 0.15 0.00 89 1019.2
20240612101942 23 100 4.8 16.1 0.00 0.15 0.00 90 1019.2
20240612101442 23 112 3.2 12.9 0.00 0.15 0.00 90 1019.2
20240612100941 23 120 9.7 17.7 0.00 0.15 0.00 90 1019.3
20240612100443 23 104 8.0 22.5 0.00 0.15 0.00 90 1019.3
20240612100214 23 108 9.7 22.5 0.00 0.15 0.15 91 1019.5
20240612095442 23 145 11.3 20.9 0.00 0.15 0.15 91 1019.5
20240612094941 23 130 6.4 20.9 0.00 0.15 0.15 91 1019.5
20240612094443 23 135 9.7 20.9 0.00 0.15 0.15 91 1019.5
20240612093942 23 122 8.0 17.7 0.00 0.15 0.15 91 1019.5
20240612093441 23 127 14.5 25.7 0.00 0.15 0.15 90 1019.6
20240612092948 23 118 16.1 37.0 0.00 0.15 0.15 89 1019.8
20240612092942 23 133 14.5 27.4 0.00 0.15 0.15 90 1019.5
20240612091942 23 127 11.3 37.0 0.00 0.15 0.15 87 1019.7
20240612091442 23 132 14.5 25.7 0.00 0.15 0.15 85 1019.7
20240612090942 23 80 17.7 25.7 0.00 0.15 0.15 86 1019.6
20240612090442 23 116 4.8 22.5 0.00 0.15 0.15 86 1019.7
20240612085942 23 95 8.0 22.5 0.00 0.15 0.15 86 1019.8
20240612085441 23 89 12.9 22.5 0.00 0.15 0.15 86 1019.9
20240612084942 23 103 11.3 22.5 0.00 0.15 0.15 86 1020.0
20240612084441 23 78 9.7 22.5 0.00 0.15 0.15 86 1019.8
20240612083941 23 67 8.0 25.7 0.00 0.15 0.15 86 1020.0
20240612083713 23 127 12.9 29.0 0.00 0.15 0.15 86 1019.9
20240612082942 23 44 9.7 29.0 0.00 0.15 0.15 86 1020.0
20240612082441 24 91 14.5 25.7 0.00 0.15 0.15 85 1019.8
20240612081942 24 102 9.7 20.9 0.00 0.15 0.15 85 1020.1
20240612081441 24 46 9.7 24.1 0.00 0.15 0.15 85 1020.0
20240612080942 24 78 14.5 24.1 0.00 0.15 0.15 85 1019.8
20240612080441 24 78 11.3 29.0 0.00 0.15 0.15 85 1019.8
20240612075942 24 57 14.5 29.0 0.00 0.15 0.15 85 1019.8
20240612075442 24 53 9.7 25.7 0.00 0.15 0.15 85 1019.8
20240612074942 24 99 11.3 25.7 0.00 0.15 0.15 85 1019.7
20240612074442 24 86 16.1 24.1 0.00 0.15 0.15 85 1019.7
20240612073943 24 137 9.7 25.7 0.00 0.15 0.15 85 1019.7
20240612073442 24 83 8.0 25.7 0.00 0.15 0.15 85 1019.5
20240612072943 24 114 8.0 22.5 0.00 0.15 0.15 85 1019.6
20240612072712 24 93 8.0 22.5 0.00 0.15 0.15 85 1019.7
20240612071942 24 106 11.3 22.5 0.00 0.15 0.15 85 1019.5
20240612071444 24 88 8.0 20.9 0.00 0.15 0.15 85 1019.7
20240612070941 24 110 6.4 27.4 0.00 0.15 0.15 85 1019.5
20240612070442 23 110 11.3 27.4 0.00 0.15 0.15 84 1019.6
20240612065942 23 110 9.7 27.4 0.00 0.15 0.15 85 1019.5
20240612065442 23 86 9.7 27.4 0.00 0.15 0.15 86 1019.4
20240612064943 23 105 12.9 27.4 0.00 0.15 0.15 86 1019.2
20240612064442 23 113 8.0 20.9 0.00 0.15 0.15 87 1019.4
20240612063943 23 122 9.7 20.9 0.00 0.15 0.15 88 1019.2
20240612063713 23 95 4.8 20.9 0.00 0.15 0.15 88 1019.2
20240612062943 23 38 11.3 22.5 0.00 0.15 0.15 88 1019.6
20240612062442 23 110 14.5 24.1 0.00 0.15 0.15 87 1019.3
20240612061942 23 91 6.4 24.1 0.00 0.15 0.15 88 1019.4
20240612061442 23 97 14.5 20.9 0.00 0.15 0.15 87 1019.2
20240612060941 23 72 11.3 20.9 0.00 0.15 0.15 87 1019.2
20240612060442 23 121 6.4 22.5 0.00 0.15 0.15 87 1019.1
20240612055943 23 65 6.4 24.1 0.00 0.15 0.15 87 1019.0
20240612055442 23 89 11.3 24.1 0.00 0.15 0.15 86 1018.9
20240612054930 23 108 9.7 22.5 0.00 0.15 0.15 86 1018.9
20240612054431 24 76 6.4 24.1 0.00 0.15 0.15 86 1018.7
20240612053930 23 128 9.7 25.7 0.00 0.15 0.15 86 1018.8
20240612053430 23 106 14.5 25.7 0.00 0.15 0.15 87 1018.8
20240612052929 23 71 9.7 25.7 0.00 0.15 0.15 87 1018.4
20240612052430 23 127 4.8 24.1 0.00 0.15 0.15 88 1018.6
20240612052202 23 65 11.3 29.0 0.00 0.15 0.15 87 1018.5
20240612051430 23 69 17.7 29.0 0.00 0.15 0.15 87 1018.5
20240612050930 23 133 6.4 22.5 0.00 0.15 0.15 85 1018.4
20240612050430 23 135 11.3 22.5 0.00 0.15 0.15 86 1018.3
20240612045929 24 86 14.5 22.5 0.00 0.15 0.15 86 1018.7
20240612045701 24 112 12.9 25.7 0.00 0.15 0.15 86 1018.5
20240612044918 24 89 12.9 27.4 0.00 0.15 0.15 86 1018.6
20240612044417 24 89 19.3 27.4 0.00 0.15 0.15 85 1018.4
20240612043918 24 94 12.9 24.1 0.00 0.15 0.15 86 1018.6
20240612043649 24 104 8.0 25.7 0.00 0.15 0.15 86 1018.2
20240612042918 24 64 14.5 27.4 0.03 0.15 0.15 86 1018.3
20240612042419 23 32 14.5 27.4 0.03 0.15 0.15 86 1018.2
20240612041918 23 80 14.5 24.1 0.03 0.15 0.15 87 1018.1
20240612041644 23 131 8.0 22.5 0.03 0.15 0.15 88 1018.2
20240612041406 23 111 11.3 24.1 0.03 0.15 0.15 89 1017.9
20240612040406 23 161 11.3 24.1 0.03 0.15 0.15 87 1017.8